Sault Ste Marie, MI

12:38 AM EST on December 13, 2017 (GMT -0500)
Sault Ste Marie Municipal / Sanderson Field

Weather History for KANJ - December, 2012

Change the Weather History Date:

Friday, December 7, 2012

  Actual Average Record
Temperature  
Mean Temperature 32 °F 25 °F  
Max Temperature 35 °F 31 °F 45 °F (1951)
Min Temperature 29 °F 20 °F -16 °F (1906)
Degree Days  
Heating Degree Days 33 40  
Month to date heating degree days 220 269  
Since 1 July heating degree days 2008 2201  
Moisture  
Dew Point 26 °F    
Average Humidity 78    
Maximum Humidity 92    
Minimum Humidity 63    
Precipitation  
Precipitation 0.00 in 0.10 in 0.90 in (1974)
Month to date precipitation 0.82 0.72  
Year to date precipitation 27.03 30.88  
Snow  
Snow 0.00 in 1.00 in 8.80 in (1974)
Month to date snowfall 2.7 6.9  
Since 1 July snowfall 25.7 23.6  
Snow Depth 0.00 in    
Sea Level Pressure  
Sea Level Pressure 29.89 in    
Wind  
Wind Speed 8 mph (WNW)    
Max Wind Speed 15 mph    
Max Gust Speed 23 mph    
Visibility 10 miles    
Events      
T = Trace of Precipitation, MM = Missing Value Source: NWS Daily Summary

Daily Weather History Graph

Daily Weather History Graph

Search for Another Location

Airport or City:

Trip Planner

Search our weather history database for the weather conditions in past years. The results will help you decide how hot, cold, wet, or windy it might be!

Date:

Astronomy

Dec. 07, 2012 Rise Set
Actual Time 8:07 AM EST 4:50 PM EST
Civil Twilight 7:33 AM EST 5:25 PM EST
Nautical Twilight 6:55 AM EST 6:03 PM EST
Astronomical Twilight 6:18 AM EST 6:39 PM EST
Moon 1:06 AM EST (12/7) 1:05 PM EST (12/7)
Length of Visible Light 9h 52m
Length of Day
8h 42m
Last Quarter, 39% of the Moon is Illuminated
Dec 7
Last Quarter
Dec 13
New
Dec 20
First Quarter
Dec 28
Full
Jan 4
Last Quarter

Hourly Weather History & Observations

Time (EST) Temp. Windchill Dew Point Humidity Pressure Visibility Wind Dir Wind Speed Gust Speed Precip Events Conditions
12:48 AM 35.1 °F 31.0 °F 32.0 °F 89% 29.79 in 7.0 mi SW 4.6 mph - N/A   Overcast
12:55 AM 35.1 °F 30.1 °F 32.0 °F 89% 29.81 in 6.0 mi SW 5.8 mph - N/A   Overcast
1:31 AM 36.0 °F 31.1 °F 33.1 °F 89% 29.78 in 6.0 mi West 5.8 mph - N/A   Overcast
1:55 AM 36.0 °F 30.3 °F 33.1 °F 89% 29.81 in 6.0 mi WSW 6.9 mph - N/A   Overcast
2:26 AM 37.9 °F 30.9 °F 33.1 °F 83% 29.81 in 7.0 mi West 10.4 mph - N/A   Overcast
2:55 AM 37.9 °F 30.9 °F 33.1 °F 83% 29.83 in 10.0 mi West 10.4 mph - N/A   Overcast
3:55 AM 37.0 °F 29.8 °F 32.0 °F 82% 29.84 in 10.0 mi West 10.4 mph 18.4 mph N/A   Overcast
4:11 AM 37.0 °F 29.3 °F 32.0 °F 82% 29.82 in 10.0 mi West 11.5 mph - N/A   Overcast
4:43 AM 37.0 °F 29.8 °F 28.9 °F 73% 29.83 in 10.0 mi West 10.4 mph - N/A   Overcast
4:55 AM 37.0 °F 28.1 °F 28.0 °F 70% 29.85 in 10.0 mi WNW 15.0 mph 23.0 mph N/A   Overcast
5:20 AM 37.0 °F 31.0 °F 28.0 °F 70% 29.84 in 10.0 mi West 8.1 mph - N/A   Overcast
5:47 AM 36.0 °F 28.5 °F 28.9 °F 76% 29.85 in 10.0 mi West 10.4 mph - N/A   Overcast
5:55 AM 36.0 °F 28.5 °F 28.0 °F 73% 29.87 in 10.0 mi West 10.4 mph - N/A   Overcast
6:08 AM 36.0 °F 29.0 °F 28.0 °F 73% 29.86 in 10.0 mi West 9.2 mph - N/A   Overcast
6:15 AM 36.0 °F 29.0 °F 28.0 °F 73% 29.86 in 10.0 mi West 9.2 mph - N/A   Overcast
6:24 AM 36.0 °F 30.3 °F 28.9 °F 76% 29.86 in 10.0 mi WNW 6.9 mph - N/A   Overcast
6:55 AM 36.0 °F 28.5 °F 26.1 °F 67% 29.89 in 10.0 mi WNW 10.4 mph 17.3 mph N/A   Overcast
7:55 AM 36.0 °F 29.0 °F 25.0 °F 64% 29.90 in 10.0 mi WNW 9.2 mph - N/A   Overcast
8:45 AM 36.0 °F 28.5 °F 27.0 °F 70% 29.89 in 10.0 mi NW 10.4 mph - N/A   Overcast
8:55 AM 36.0 °F 29.6 °F 27.0 °F 70% 29.92 in 10.0 mi WNW 8.1 mph - N/A   Overcast
9:27 AM 36.0 °F 29.0 °F 25.0 °F 64% 29.91 in 10.0 mi WNW 9.2 mph - N/A   Overcast
9:55 AM 36.0 °F 29.6 °F 25.0 °F 64% 29.93 in 10.0 mi West 8.1 mph - N/A   Overcast
2:36 PM 34.0 °F 27.2 °F 25.0 °F 70% 29.93 in 10.0 mi NW 8.1 mph - N/A   Overcast
2:55 PM 34.0 °F 25.0 °F 25.0 °F 70% 29.93 in 10.0 mi NW 12.7 mph 17.3 mph N/A   Overcast
3:55 PM 33.1 °F 25.5 °F 23.0 °F 66% 29.96 in 10.0 mi NW 9.2 mph - N/A   Overcast
4:55 PM 32.0 °F 24.8 °F 23.0 °F 69% 29.97 in 10.0 mi NW 8.1 mph - N/A   Overcast
5:55 PM 32.0 °F 26.4 °F 21.9 °F 66% 29.97 in 10.0 mi NNW 5.8 mph - N/A   Overcast
6:55 PM 32.0 °F 25.6 °F 21.9 °F 66% 29.98 in 10.0 mi NNW 6.9 mph - N/A   Overcast
7:55 PM 30.9 °F 23.5 °F 21.0 °F 67% 29.98 in 10.0 mi North 8.1 mph - N/A   Overcast
8:55 PM 30.0 °F 23.2 °F 19.9 °F 66% 29.98 in 10.0 mi NNE 6.9 mph - N/A   Overcast
9:55 PM 30.0 °F 25.2 °F 19.9 °F 66% 29.99 in 10.0 mi North 4.6 mph - N/A   Overcast
10:55 PM 30.0 °F 26.5 °F 19.9 °F 66% 29.99 in 10.0 mi NE 3.5 mph - N/A   Overcast
11:55 PM 28.9 °F 22.8 °F 19.9 °F 69% 29.98 in 10.0 mi ENE 5.8 mph - N/A   Overcast